Theta_e
289 283 280 284 284 284 284 281 279 281 285 283 281 281 283 286 285 283 282 282 282 283 285 286 286 285 284 284 286 287 288 287 288 287 287 287 286 288 288 289 289 289 289 289
284 282 286 288 287 284 283 280 278 281 284 282 282 281 283 285 285 284 283 283 283 284 283 285 285 284 284 283 284 286 287 286 287 287 287 286 286 287 287 288 288 289 289 288
282 285 288 287 284 284 281 280 279 280 281 282 280 278 281 284 285 286 285 285 284 284 283 282 283 283 283 283 284 286 285 285 285 286 286 286 285 286 285 285 285 287 288 288
285 287 286 284 283 284 279 284 283 281 277 274 279 273 278 282 283 285 284 282 282 283 283 282 282 282 283 283 285 285 285 285 285 285 284 282 281 281 283 283 284 285 286 286
281 283 282 283 283 286 281 285 283 280 277 276 276 273 278 281 280 283 282 282 282 282 282 281 282 283 284 285 283 283 283 283 283 283 282 281 280 281 282 281 281 282 283 284
283 286 285 284 286 286 286 282 282 280 277 266 275 275 275 277 282 282 283 283 282 281 281 282 283 284 284 283 282 282 282 282 282 281 281 279 278 279 278 279 278 279 280 281
280 281 285 287 282 285 283 279 267 267 265 268 275 274 277 282 283 284 284 283 281 281 280 280 281 282 282 281 281 282 281 280 280 280 280 279 278 278 277 277 277 277 277 278
276 274 282 286 282 280 279 279 271 266 268 272 276 272 279 282 284 285 285 284 281 280 280 280 281 282 281 281 280 280 280 279 279 279 279 279 278 277 277 277 276 276 276 277
276 276 281 284 284 283 280 275 279 269 264 267 274 277 281 281 281 281 282 281 280 280 280 281 282 281 280 280 280 279 279 279 278 278 278 277 277 277 276 276 276 275 275 276
282 275 280 281 283 282 279 280 273 270 265 264 272 275 278 278 279 280 279 280 279 280 280 281 281 280 280 280 280 279 279 278 277 277 277 276 276 275 275 275 273 273 273 274
283 279 277 279 278 277 277 274 275 276 276 269 266 273 281 282 281 280 280 280 280 279 280 281 280 280 279 279 278 278 277 277 276 276 276 274 274 273 273 272 271 271 271 272
282 278 272 275 278 279 279 277 277 271 270 272 271 272 280 280 282 283 281 280 280 280 281 281 280 279 278 277 276 276 276 276 275 275 274 272 272 271 270 269 269 270 269 271
283 274 266 273 276 276 277 278 278 271 271 269 267 276 280 279 279 281 280 279 279 280 280 280 279 279 277 276 275 274 274 274 274 272 271 270 270 269 268 267 267 268 268 269
287 276 274 276 278 276 275 276 278 274 266 268 274 279 282 278 278 279 279 280 279 279 280 279 279 278 277 276 274 272 272 272 271 271 269 268 268 267 266 265 263 264 266 268
279 273 272 272 276 276 277 276 278 276 278 274 282 276 283 281 278 279 281 279 278 278 279 279 278 277 276 273 272 270 271 271 270 268 265 262 265 264 262 260 260 261 263 266
278 272 274 271 275 275 274 277 277 278 277 277 279 277 283 284 281 279 280 279 279 279 279 280 279 278 276 274 268 268 264 266 268 263 257 258 258 259 259 257 258 259 261 263
275 273 269 268 273 270 268 274 277 276 275 278 276 282 281 280 281 280 279 280 280 280 280 279 279 277 277 272 270 262 261 264 260 259 256 255 254 256 256 258 258 260 261 263
273 273 271 268 268 270 280 277 281 279 281 281 281 284 282 279 281 283 282 281 281 281 279 279 279 277 274 271 266 262 262 258 257 257 255 255 254 255 257 257 258 259 261 261
274 277 272 270 268 278 278 276 277 276 280 284 282 283 284 279 279 280 282 283 283 281 281 280 278 273 269 266 263 261 257 255 256 256 256 255 255 256 255 258 258 259 263 266
277 275 277 269 271 271 278 277 278 280 277 285 283 284 280 279 276 283 281 282 278 280 280 275 271 269 266 262 262 262 258 258 257 257 258 257 257 257 256 257 260 260 263 268
271 271 276 276 277 276 281 277 279 276 283 280 281 281 278 279 281 277 279 276 279 277 274 271 269 268 266 262 263 261 260 260 260 262 261 259 259 261 261 263 264 265 265 266
274 274 275 275 277 277 279 277 281 284 279 280 278 279 279 278 277 275 275 274 272 270 271 269 268 264 262 263 265 262 263 261 262 263 263 262 262 266 266 265 267 267 267 267
278 280 279 282 282 280 281 283 283 279 280 279 279 279 279 277 275 274 272 272 271 270 269 269 267 263 262 264 266 266 263 263 263 263 261 260 263 267 267 266 266 266 266 266
277 280 283 283 285 282 279 279 279 280 279 278 279 278 278 276 275 273 272 271 271 269 268 267 266 264 263 265 267 267 264 264 261 260 261 263 263 264 265 267 267 266 264 264
281 282 280 282 285 279 281 282 281 280 279 277 275 276 277 276 275 274 273 271 270 269 268 267 266 265 264 265 266 265 265 263 261 261 263 265 264 262 264 266 265 267 267 268
282 280 282 283 289 287 290 283 283 280 278 277 276 273 276 277 275 274 272 271 270 268 267 266 266 265 264 264 263 263 263 262 261 262 263 262 263 262 263 262 262 269 271 272
Wind_Speed
1 6 6 12 6 1 6 5 7 2 2 5 8 6 10 10 8 9 9 9 9 8 7 6 6 6 6 6 6 5 6 7 5 4 6 6 7 7 7 7 9 10 10 11
5 3 3 5 3 1 2 5 3 2 2 2 5 9 10 12 11 10 11 9 9 7 6 6 5 7 5 4 5 6 6 7 6 4 4 3 5 5 5 8 10 11 11 11
6 2 1 3 3 5 3 6 5 4 2 2 2 9 8 10 7 8 9 10 8 10 9 7 7 7 5 5 4 6 6 7 6 7 4 5 4 6 7 8 9 11 11 11
4 1 2 4 4 3 4 3 6 9 5 4 4 7 5 12 15 13 9 9 10 9 8 6 7 6 6 3 5 7 6 7 7 7 6 9 6 6 6 7 7 8 10 11
2 3 2 2 2 2 3 2 6 4 2 3 2 2 8 6 12 17 12 11 10 9 10 8 7 7 6 6 5 6 6 7 6 6 7 6 7 5 5 6 10 10 10 11
3 0 3 3 3 1 6 7 8 6 3 3 5 6 7 7 13 8 9 13 13 10 10 9 7 8 6 5 6 6 7 6 6 6 7 8 8 8 7 9 8 9 8 9
2 2 2 4 7 7 3 6 4 5 4 8 3 4 11 8 9 12 19 16 13 13 10 9 9 7 6 6 5 5 6 6 6 6 7 7 7 7 7 8 7 9 9 10
7 4 8 3 4 8 6 6 8 9 4 4 4 8 10 6 9 7 12 15 15 13 11 10 9 8 7 6 6 6 6 6 6 6 7 6 7 4 4 6 7 6 7 8
6 1 1 4 3 3 6 4 4 8 2 5 5 8 12 3 2 4 12 16 16 14 13 12 10 8 8 6 6 6 7 5 5 5 5 6 6 7 7 8 8 7 9 10
8 6 1 1 1 1 2 4 4 4 2 5 5 5 9 7 9 7 12 17 15 13 12 11 10 9 6 7 6 6 7 6 5 5 6 6 6 7 7 8 10 10 10 11
6 7 1 2 8 9 2 2 1 3 5 6 3 8 8 11 13 17 16 17 18 16 14 12 10 9 8 7 6 6 6 5 5 5 6 7 7 8 8 8 10 10 11 12
3 7 5 8 2 2 4 6 7 7 6 3 4 11 3 2 8 13 14 14 14 14 14 13 12 11 9 7 6 6 6 5 5 5 6 7 8 8 9 10 11 11 11 11
10 1 4 6 4 2 7 7 5 4 3 7 5 9 2 2 2 9 12 13 13 14 14 13 12 11 9 7 6 7 5 5 5 5 7 7 8 9 9 9 11 11 10 10
7 4 9 11 6 7 7 8 11 8 4 5 13 13 13 7 9 8 10 13 14 16 17 14 12 11 10 9 7 6 5 4 5 5 7 6 7 8 8 7 8 8 8 8
6 7 5 4 3 4 4 6 17 15 21 10 18 14 26 13 14 14 14 11 14 16 17 17 15 12 11 10 7 6 5 4 4 5 6 3 5 5 5 6 6 7 7 7
1 2 3 3 4 3 4 8 12 19 7 16 21 24 2 8 6 8 13 16 19 19 19 17 16 15 15 12 9 6 4 4 5 4 4 3 4 5 5 6 7 6 6 6
7 7 4 6 2 3 6 19 17 8 7 13 16 31 6 9 12 13 14 19 21 21 19 20 19 17 15 13 12 8 6 5 4 5 3 3 4 4 5 5 6 6 6 6
7 8 4 4 2 10 4 7 20 23 16 21 18 22 11 7 10 10 12 20 19 18 18 17 15 14 13 11 9 9 6 5 4 5 4 2 3 4 5 5 6 6 4 4
2 4 4 6 6 10 4 6 11 13 17 27 25 27 22 5 3 11 13 14 22 22 20 17 15 14 12 13 11 11 7 5 4 5 4 1 0 3 3 4 6 4 4 5
1 2 3 4 5 14 2 5 8 8 14 16 23 26 9 9 4 15 15 14 10 14 15 17 15 14 14 10 12 12 8 6 6 6 5 4 2 0 2 3 5 4 3 5
4 1 13 5 9 13 7 9 8 7 14 4 11 10 13 11 9 3 6 6 10 14 16 16 15 16 15 13 12 11 9 8 6 6 5 3 2 1 2 3 2 3 4 5
14 14 8 4 8 29 9 6 16 9 3 6 5 8 15 7 7 7 7 12 15 17 16 13 15 13 12 12 13 11 10 7 7 6 6 2 1 0 1 2 3 4 5 6
13 14 13 17 14 2 19 9 10 3 7 7 6 7 9 10 7 10 10 13 14 16 14 12 15 15 10 11 11 12 8 10 8 7 5 2 1 2 1 3 3 3 4 4
6 3 8 6 17 12 13 5 5 7 6 5 6 7 12 10 12 9 12 14 14 14 15 13 16 15 14 11 11 8 12 10 8 7 6 4 3 2 1 2 2 2 2 2
8 15 9 15 15 2 9 16 8 7 5 5 1 6 12 14 14 14 12 14 14 14 14 14 15 14 14 12 9 10 11 11 9 7 5 5 4 3 1 1 2 1 2 2
11 11 16 19 19 18 19 14 15 12 14 12 10 5 8 12 16 13 13 13 15 16 14 14 12 13 14 12 10 10 10 11 10 8 5 3 3 2 3 1 2 5 5 8
Wind_Direction
45 91 184 197 201 126 172 145 130 131 104 156 221 218 207 213 204 193 197 189 186 176 175 156 151 140 101 59 51 34 38 20 16 358 359 3 359 359 1 4 354 359 359 357
35 185 179 136 162 106 30 123 97 54 156 155 227 241 207 206 214 192 189 191 183 169 152 162 132 88 88 92 49 36 44 32 15 351 355 2 355 356 353 358 358 355 356 356
152 171 173 148 138 125 36 158 180 158 141 348 315 285 197 228 205 197 199 185 173 166 161 152 113 112 104 76 48 56 53 41 23 3 0 9 353 0 2 359 351 348 349 347
102 255 181 142 119 112 147 320 129 132 118 210 130 275 240 207 207 211 194 168 168 164 146 144 131 117 117 105 69 68 58 45 30 13 26 32 12 2 353 348 342 345 348 347
191 143 133 110 90 21 168 117 126 125 103 69 212 76 276 157 220 219 196 180 181 173 154 147 140 128 131 97 91 80 68 47 27 26 39 40 21 352 342 350 348 350 349 347
83 313 56 119 31 80 138 71 42 41 58 0 212 166 270 201 222 208 195 194 175 166 153 146 136 129 113 93 88 78 75 50 30 31 36 41 26 358 352 358 353 351 344 342
49 19 348 127 75 353 51 88 10 352 1 221 338 167 244 231 230 199 196 188 170 164 150 148 142 139 127 108 93 97 78 52 33 33 39 38 23 3 356 359 352 350 345 344
154 289 174 208 190 185 186 161 159 202 196 255 355 236 253 214 246 196 187 172 156 162 155 153 151 147 138 127 112 102 87 68 42 35 32 32 29 6 356 358 355 351 344 334
143 197 15 51 358 125 196 198 166 102 54 56 226 272 297 206 141 142 152 158 166 164 157 153 147 148 142 137 135 122 101 79 56 43 33 30 23 9 3 359 358 348 342 338
182 98 343 286 4 346 177 167 85 349 163 264 280 268 250 247 212 181 172 174 169 162 159 155 148 148 144 145 137 110 99 91 66 47 39 30 21 8 2 358 354 347 339 338
134 109 306 96 214 180 147 237 22 136 157 183 240 254 220 229 190 197 188 182 172 169 164 159 154 148 148 137 132 112 96 83 58 41 39 32 16 6 4 1 353 348 338 336
162 119 164 209 273 264 193 194 161 134 237 237 146 260 227 227 224 193 191 179 174 166 160 157 154 152 149 141 136 116 101 82 56 51 47 29 18 10 7 1 355 348 343 339
180 203 72 349 342 328 217 200 147 120 87 211 139 262 205 284 199 202 180 177 170 160 161 159 156 161 154 142 138 116 101 86 67 52 49 33 17 10 5 355 352 347 338 339
106 135 161 189 188 136 201 193 176 137 133 192 227 265 255 224 222 191 190 185 171 171 167 164 163 164 154 148 140 126 110 90 82 73 60 34 16 9 357 345 338 330 326 340
129 189 152 230 171 179 212 176 186 194 220 193 247 217 252 217 211 206 195 164 162 172 172 173 169 163 153 143 139 127 117 108 101 86 70 19 6 2 340 339 332 322 325 339
46 230 110 303 235 216 233 229 195 217 252 260 263 272 141 251 175 166 181 176 181 182 182 175 168 162 164 160 153 145 142 118 114 99 80 3 4 3 348 335 332 323 328 336
146 134 105 252 41 61 294 213 209 192 199 214 227 243 132 222 203 208 185 189 187 188 181 177 175 168 167 159 154 155 159 125 117 105 71 27 11 357 341 335 337 326 340 339
146 135 124 194 47 263 276 194 205 219 230 231 262 261 228 220 219 227 191 189 192 185 180 177 166 161 149 140 135 131 133 125 135 109 91 32 8 349 344 345 337 325 321 336
81 151 143 164 206 299 213 197 167 175 235 235 233 250 250 133 76 259 192 195 195 185 180 171 162 144 138 140 140 133 128 137 144 127 127 204 24 344 343 355 336 313 336 344
59 53 162 142 190 234 97 161 135 110 276 231 212 233 180 132 180 256 188 181 157 158 159 151 141 135 137 143 143 137 150 158 159 153 169 183 210 75 338 312 321 299 325 1
135 340 215 205 239 271 185 160 156 135 262 183 189 207 156 193 204 225 134 127 143 145 145 136 144 151 152 148 146 147 153 183 166 153 152 167 204 236 272 313 318 318 356 358
163 167 187 180 222 255 142 86 180 196 152 162 169 182 187 177 143 125 122 132 133 133 141 146 141 143 146 152 151 153 170 170 152 146 134 164 135 70 30 8 349 16 15 20
194 186 181 187 219 150 191 185 204 160 153 191 178 190 167 155 172 152 146 143 143 146 146 149 145 141 151 163 159 158 164 159 151 135 132 148 133 101 21 64 30 31 17 27
252 184 202 122 228 222 206 213 198 188 180 173 187 168 160 160 157 152 148 149 148 150 152 150 145 152 158 171 167 154 154 158 143 136 146 157 145 103 75 68 59 52 10 356
168 151 172 246 250 331 227 216 186 192 169 175 277 172 165 156 167 159 157 158 155 153 153 155 155 160 162 166 157 150 159 149 147 138 156 155 142 139 53 62 213 129 291 284
181 169 187 221 220 207 242 187 189 191 202 186 158 149 170 168 158 158 159 161 158 158 155 157 156 153 157 160 152 154 154 153 147 149 159 166 153 163 138 101 357 1 16 6